Regional Weather Roundup
Issued by NWS Bismarck, ND

Home | Current Version | Previous Version | Text Only | Print | Product List | Glossary On
Versions: 1 2 3 4 5 6 7 8 9 10 11 12 13 14 15 16 17 18 19 20 21 22 23 24 25 26 27 28 29 30 31 32 33 34 35 36 37 38 39 40 41 42 43 44 45 46 47 48 49 50
799
ASUS43 KBIS 101810
RWRBIS

NWR BROADCAST TEXT
NATIONAL WEATHER SERVICE BISMARCK ND
1200 PM CST WED FEB 10 2016

NOTE: "FAIR" INDICATES FEW OR NO CLOUDS BELOW 12,000 FEET WITH NO
SIGNIFICANT WEATHER AND/OR OBSTRUCTIONS TO VISIBILITY.


CITY           SKY/WX    TMP DP  RH WIND       PRES   REMARKS
WILLISTON      CLOUDY    30  25  81 N10       30.03R
MINOT          CLOUDY    17   8  67 NE6       30.02R HAZE    WCI   9
MINOT AFB      FLURRIES  16   9  73 NE6       30.04R WCI   7
BISMARCK       CLOUDY    25  16  68 E6        29.97R WCI  18
DICKINSON      SUNNY     40  30  67 N18G26    29.90R
GARRISON         N/A     19  14  81 SE3       29.97R
HETTINGER ARPT SUNNY     47  29  49 NW22G30   29.92R
JAMESTOWN      CLOUDY     8   4  83 E14       30.02R WCI  -8
BEACH          FAIR      41  32  70 NW16      30.00R
CARRINGTON     CLOUDY     9   7  92 SE14      30.05R WCI  -8
HAZEN          CLOUDY    27  19  74 N5        29.99R
LINTON         CLOUDY    21  19  93 E8        29.97R WCI  12
MANDAN         CLOUDY    23  16  74 NE6       29.96R WCI  16
OAKES          CLOUDY    10   7  85 E18       30.03R WCI  -8
RUGBY          CLOUDY     7   3  85 E14       30.06R WCI -10
STANLEY        CLOUDY    23  21  93 N3        30.00R
TIOGA          CLOUDY    25  25 100 NW10      30.04R WCI  15
WATFORD CITY   CLOUDY    32  27  80 NW10      30.02R
$$

CITY           SKY/WX    TMP DP  RH WIND       PRES   REMARKS
GRAND FORKS    CLOUDY     9   0  67 E7        30.17R WCI  -2
GRAND FORKS AF CLOUDY     8  -1  66 E5        30.16R WCI  -1
DEVILS LAKE    FLURRIES   6   1  80 E14       30.08R WCI -11
FARGO          CLOUDY    11   3  70 E6        30.12S WCI   1
CAVALIER       FAIR       7   0  72 E5        30.19S WCI  -2
GRAFTON        FAIR       7   0  72 E6        30.20S WCI  -3
GWINNER        CLOUDY    12   9  85 E14       30.06R WCI  -3
LANGDON        LGT SNOW   5   0  78 E12       30.09S WCI -11
ROLLA          CLOUDY     5   0  78 SE9       30.07R WCI  -9
WALHALLA       FAIR       5   0  78 E5        30.19R WCI  -4
$$

CITY           SKY/WX    TMP DP  RH WIND       PRES   REMARKS
ABERDEEN       CLOUDY    18  12  77 E8        29.98R WCI   8
MOBRIDGE       SUNNY     33  24  69 E8        29.87R
BUFFALO          N/A     50  27  40 NW24      29.87R
RAPID CITY     SUNNY     63  19  18 NW31G43   29.90R
GLASGOW        CLOUDY    37  31  78 NW9       30.07R
SIDNEY         CLOUDY    37  28  70 N16       30.02R
WOLF POINT     PTSUNNY   41  32  70 N12       30.06R
GLENDIVE       SUNNY     43  30  61 N16G24    30.02R
MILES CITY     SUNNY     50  28  42 NW12      30.02R
BAKER          SUNNY     46  28  49 NW16      29.97R
$$

CITY           SKY/WX    TMP DP  RH WIND       PRES   REMARKS
BILLINGS       CLOUDY    52  20  28 W18       30.05F
GREAT FALLS    CLOUDY    50  25  37 CALM      30.13R
REGINA         CLOUDY    25  21  86 N16G22    30.06R WCI  12
ESTEVAN        CLOUDY    18  12  79 VRB2      30.04R
$$





USA.gov is the U.S. government's official web portal to all federal, state and local government web resources and services.